#timestamp,LO_Frequency,Hit,StdDev 
1680433215.5,286046997.7,N
1680433235.4,286046996.8,N
1680433255.2,286046998.6,N
1680433275.0,286046996.9,N
1680433275.9,286046996.9,N
1680433295.8,286046997.0,N
1680433315.6,286046996.7,N
1680433335.4,286046996.6,N
1680433355.3,286046998.9,N
1680433375.1,286047001.1,N
1680433395.9,286046999.4,N
1680433415.7,286046998.4,N
1680433435.5,286047001.1,N
1680433455.4,286047000.9,N
1680433475.2,286047000.7,N
1680433495.0,286047001.2,N
1680433496.0,286047001.2,N
1680433515.8,286047000.9,N
1680433535.6,286046998.3,N
1680433555.5,286046998.2,N
1680433575.3,286046999.7,N
1680433595.1,286047001.0,N
1680433615.9,286046999.7,N
1680433635.7,286047000.6,N
1680433655.5,286046998.4,N
1680433675.4,286046998.4,N
1680433695.2,286046998.5,N
1680433715.1,286046998.8,N
1680433716.0,286046998.8,N
1680433735.8,286047001.1,N
1680433755.6,286046999.5,N
1680433775.5,286046997.0,N
1680433795.3,286046999.2,N
1680433815.1,286046999.3,N
1680433835.9,286046997.2,N
1680433855.7,286046997.9,N
1680433875.6,286046995.9,N
1680433895.4,286046996.6,N
1680433915.2,286046998.9,N
1680433935.1,286046996.9,N
1680433936.0,286046996.9,N
1680433955.8,286046996.7,N
1680433975.6,286046999.5,N
1680433995.5,286046996.5,N
1680434015.3,286046998.5,N
1680434035.2,286046997.7,N
1680434055.9,286046997.3,N
1680434075.7,286046997.4,N
1680434095.6,286046997.1,N
1680434115.4,286046997.2,N
1680434135.2,286046998.9,N
1680434155.1,286047000.9,N
1680434156.0,286047000.9,N
1680434175.8,286046999.0,N
1680434195.7,286046998.9,N
1680434215.5,286047000.3,N
1680434235.3,286046998.1,N
1680434255.2,286046998.1,N
1680434275.0,286047000.5,N
1680434275.9,286047000.5,N
1680434295.7,286047001.0,N
1680434315.6,286046998.1,N
1680434335.4,286046998.6,N
1680434355.3,286047001.2,N
1680434375.1,286046998.6,N
1680434376.0,286046998.6,N
1680434395.8,286046998.2,N
1680434415.7,286047000.8,N
1680434435.5,286046998.8,N
1680434455.3,286046998.6,N
1680434475.2,286047000.6,N
1680434495.0,286046998.5,N
1680434495.9,286046998.5,N
1680434515.8,286046998.5,N
1680434535.6,286046998.3,N
1680434555.4,286046999.5,N
1680434575.3,286046998.7,N
1680434595.1,286046999.4,N
1680434615.8,286046998.8,N
1680434635.7,286047000.8,N
1680434655.5,286047000.7,N
1680434675.4,286047000.6,N
1680434695.2,286046999.7,N
1680434715.0,286047002.5,N
1680434715.9,286047002.5,N
1680434735.8,286047002.7,N
1680434755.6,286046998.4,N
1680434775.4,286046999.9,N
1680434795.3,286047000.2,N
1680434815.1,286047000.9,N
1680434835.9,286047000.2,N
1680434855.7,286046999.7,N
1680434875.5,286047002.6,N
1680434895.4,286047002.3,N
1680434915.2,286047000.0,N
1680434935.0,286047002.6,N
1680434935.9,286047002.6,N
1680434955.8,286047000.8,N
1680434975.6,286046999.4,N
1680434995.5,286047000.6,N
1680435015.3,286047001.1,N
1680435035.1,286046999.8,N
1680435055.9,286046998.5,N
1680435075.7,286046998.7,N
1680435095.5,286046998.6,N
1680435115.4,286047000.7,N
1680435135.2,286046998.1,N
1680435155.0,286046998.1,N
1680435155.9,286046998.1,N
1680435175.8,286046999.9,N
1680435195.6,286047000.0,N
1680435215.5,286047000.6,N
1680435235.3,286046999.4,N
1680435255.1,286047001.0,N
1680435275.9,286047001.8,N
1680435295.7,286047001.3,N
1680435315.5,286047000.4,N
1680435335.4,286047001.7,N
1680435355.2,286047004.1,Y
1680435375.1,286047000.0,P
1680435376.0,286047000.0,N
1680435395.8,286047001.2,P
1680435415.6,286047000.2,N
1680435435.5,286047001.9,Y
1680435455.3,286047000.3,P
1680435475.1,286046999.2,P
1680435495.9,286047000.6,N
1680435515.7,286047000.2,N
1680435535.6,286047000.1,N
1680435555.4,286047000.8,N
1680435575.2,286047000.3,N
1680435595.1,286047001.6,Y
1680435596.0,286047001.6,P
1680435615.8,286047000.5,N
1680435635.7,286047000.1,N
1680435655.5,286047002.7,Y
1680435675.3,286046999.9,P
1680435695.2,286047002.4,P
1680435715.0,286047000.5,N
1680435715.9,286047000.5,N
1680435735.7,286047001.2,N
1680435755.6,286046998.7,N
1680435775.4,286046998.6,N
1680435795.3,286046998.5,N
1680435815.1,286046999.0,N
1680435816.0,286046999.0,N
1680435835.8,286047000.2,N
1680435855.7,286047001.0,N
1680435875.5,286046996.5,Y
1680435895.3,286046998.2,P
1680435915.2,286047000.7,N
1680435935.0,286047001.1,N
1680435935.9,286047001.1,N
1680435955.8,286046998.6,N
1680435975.6,286047000.7,N
1680435995.4,286046999.7,N
1680436015.3,286047000.5,N
1680436035.1,286046998.1,N
1680436055.8,286047000.9,N
1680436075.7,286047002.3,N
1680436095.5,286047002.2,N
1680436115.3,286047002.4,N
1680436135.2,286047002.1,N
1680436155.0,286047001.7,N
1680436155.9,286047001.7,N
1680436175.8,286047001.7,N
1680436195.6,286047002.7,N
1680436215.4,286047002.7,N
1680436235.3,286047001.0,N
1680436255.1,286047001.1,N
1680436275.8,286047000.0,N
1680436295.7,286046999.8,N
1680436315.5,286047002.2,N
1680436335.4,286047002.6,N
1680436355.2,286047000.4,N
1680436375.0,286047000.9,N
1680436375.9,286047000.9,N
1680436395.8,286046998.5,N
1680436415.6,286047000.6,N
1680436435.4,286047001.2,N
1680436455.3,286047002.1,N
1680436475.1,286047004.3,Y
1680436495.9,286047003.9,P
1680436515.7,286047002.3,N
1680436535.5,286047001.8,N
1680436555.4,286047000.1,N
1680436575.2,286047000.0,N
1680436595.0,286047001.2,N
1680436595.9,286047001.2,N
1680436615.8,286046999.7,N
1680436635.6,286046998.6,N
1680436655.5,286047000.6,N
1680436675.3,286046998.1,N
1680436695.1,286047000.8,N
1680436715.9,286047000.5,N
1680436735.7,286047002.7,N
1680436755.5,286047002.5,N
1680436775.4,286047001.6,N
1680436795.2,286047002.6,N
